Regional Weather Roundup
Issued by NWS

Home | Current Version | Previous Version | Text Only | Print | Product List | Glossary Off
Versions: 1 2 3 4 5 6 7 8 9 10 11 12 13 14 15 16 17 18 19 20 21 22 23 24 25 26 27 28 29 30 31 32 33 34 35 36 37 38 39 40 41 42 43 44 45 46 47 48 49 50

256
ASUS45 KABQ 281610
RWRNM
NEW MEXICO REGIONAL WEATHER ROUNDUP
NATIONAL WEATHER SERVICE ALBUQUERQUE NM
1000 AM MDT SAT MAY 28 2016

NOTE: "FAIR" MEANS FEW OR NO CLOUDS BELOW 12,000 FEET AGL WITH NO
       SIGNIFICANT WEATHER OR OBSTRUCTIONS TO VISION.

      THIS PRODUCT IS RELEASED AS TWO VERSIONS.  ONE VERSION NEAR
      THE TOP OF THE HOUR CONTAINING PRELIMINARY DATA FROM ALBUQUERQUE
      AND OTHER STATIONS.  A FINAL VERSION WITH ADDITIONAL DATA IS
      ISSUED ABOUT 10 MINUTES AFTER THE HOUR.

NMZ501-503-504-510>518-281700-
NORTHWEST PLATEAU/NORTHCENTRAL MOUNTAINS

CITY           SKY/WX    TMP DP  RH WIND       PRES   REMARKS
FARMINGTON     FAIR      62  35  36 SE9       30.09F
LOS ALAMOS     FAIR      55  32  40 NE6       30.19S
SANTA FE       FAIR      62  29  28 CALM      30.14S
TAOS           FAIR      57  30  35 S6        30.18F
ANGEL FIRE     FAIR      54  29  39 W15G21    30.21F

$$
NMZ402-403-502-505>509-281700-
WESTCENTRAL MOUNTAINS/SOUTHWEST MOUNTAINS

CITY           SKY/WX    TMP DP  RH WIND       PRES   REMARKS
GALLUP         FAIR      64  30  27 N3        30.13F
GRANTS         FAIR      63  26  24 E3        30.16F
SILVER CITY      N/A     72  19  14 SE8       30.10S

$$
NMZ407-409-411-412-281700-
SOUTHERN DESERTS

CITY           SKY/WX    TMP DP  RH WIND       PRES   REMARKS
LORDSBURG      FAIR      72  23  16 E3        30.02F
DEMING         FAIR      72  22  15 S5        30.03F
LAS CRUCES     FAIR      73  21  14 E6        30.06R
HOLLOMAN AFB   FAIR      74  19  12 S9        30.03S
ALAMOGORDO     FAIR      75  23  14 S13       30.04F
T OR C         FAIR      73  22  14 VRB3      30.06S

$$
NMZ519>523-281700-
CENTRAL VALLEYS/CENTRAL HIGHLANDS

CITY           SKY/WX    TMP DP  RH WIND       PRES   REMARKS
ALBUQUERQUE    FAIR      66  31  27 VRB3      30.11R
DOUBLE EAGLE   MOSUNNY   64  34  32 E6        30.14R
MORIARTY ARPT  FAIR      66  27  22 SE5       30.16S
CLINES CORNERS FAIR      62  28  27 VRB3      30.17R
BELEN          FAIR      67  29  24 N3        30.10S
SOCORRO        FAIR      70  26  19 N7        30.08S

$$
NMZ524>526-539-540-281700-
SOUTHCENTRAL MOUNTAINS

CITY           SKY/WX    TMP DP  RH WIND       PRES   REMARKS
RUIDOSO          N/A     63  28  27 SE8       30.20S

$$
NMZ527>531-281700-
NORTHEAST HIGHLANDS/NORTHEAST PLAINS

CITY           SKY/WX    TMP DP  RH WIND       PRES   REMARKS
LAS VEGAS      FAIR      63  27  25 S14       30.16S
RATON          FAIR      58  37  45 CALM      30.11S
CLAYTON        FAIR      68  40  35 S17       30.08R

$$
NMZ532>537-281700-
EASTCENTRAL PLAINS

CITY           SKY/WX    TMP DP  RH WIND       PRES   REMARKS
TUCUMCARI      FAIR      69  40  34 SE7       30.06S
CANNON AFB     FAIR      70  40  33 E7        30.07S
CLOVIS AIRPORT FAIR      70  41  35 E7        30.08S

$$
NMZ028-029-538-281700-
SOUTHEAST PLAINS

CITY           SKY/WX    TMP DP  RH WIND       PRES   REMARKS
ROSWELL        FAIR      70  40  33 CALM      30.06R
ARTESIA        FAIR      70  37  30 VRB5      30.05S
CARLSBAD       FAIR      74  39  28 N16       30.02S
HOBBS          SUNNY     73  39  29 NE10      30.05S


$$




USA.gov is the U.S. government's official web portal to all federal, state and local government web resources and services.